DateTimeUTC,F1_A11,F1_S11,BsB_S11,BsG_S11,BsR_S11,BbsB_S11,BbsG_S11,BbsR_S11,BaB_A11,BaG_A11,BaR_A11,Tu_S11,T_S11,Uu_S11,U_S11,P_S11,T1_A11
2021-06-12T05:00:00Z,00000200,20000000,,,,,,,-000.02,-000.02,0000.26,17.3,24.1,02.0,01.3,0665.2,31.0
2021-06-12T05:01:00Z,00000200,20000000,,,,,,,0000.03,0000.17,-000.46,17.3,24.1,02.0,01.3,0665.2,31.0
2021-06-12T05:02:00Z,00000200,20000000,,,,,,,-000.15,-000.36,0000.37,17.2,24.1,02.0,01.3,0665.2,31.0
2021-06-12T05:03:00Z,00000200,60000000,,,,,,,0000.31,0000.38,0000.25,17.2,24.1,02.0,01.3,0665.2,31.0
2021-06-12T05:04:00Z,00000200,40000000,0002.74,0001.61,0000.98,0000.88,0000.39,0000.07,0000.18,-000.01,-000.03,17.3,23.9,02.1,01.4,0666.2,31.0
2021-06-12T05:05:00Z,00000200,00000000,0002.00,0001.57,0000.84,0000.65,0000.21,0000.57,0000.41,0000.41,0000.32,17.4,23.9,02.1,01.4,0666.3,30.9
2021-06-12T05:06:00Z,00000200,00000000,0002.66,0001.81,0001.05,0000.47,0000.53,0000.16,0000.45,0000.66,0000.21,17.4,23.9,02.1,01.4,0666.3,30.9
2021-06-12T05:07:00Z,00000200,00000000,0002.82,0001.41,0001.15,0000.14,0000.17,0000.41,0000.14,0000.15,0000.38,17.3,23.8,02.2,01.5,0666.3,30.9
2021-06-12T05:08:00Z,00000200,00000000,0002.55,0001.65,0000.92,0000.41,0000.35,0000.32,0000.44,0000.32,0000.48,17.3,23.8,02.3,01.5,0666.3,30.9
2021-06-12T05:09:00Z,00000200,00000000,0003.34,0001.70,0001.13,0000.49,0000.30,0000.27,0006.25,0005.54,0003.89,17.3,23.8,02.2,01.5,0666.2,30.9
2021-06-12T05:10:00Z,00000200,00000000,0002.43,0001.88,0001.28,-000.12,0000.38,0000.04,0000.63,0000.78,0000.94,17.3,23.8,02.1,01.4,0666.2,31.0
2021-06-12T05:11:00Z,00000200,00000000,0002.85,0001.88,0000.90,-000.07,0000.45,0000.45,0001.25,0000.90,0000.66,17.3,23.8,02.2,01.5,0666.2,30.9
2021-06-12T05:12:00Z,00000200,00000000,0003.08,0001.69,0001.01,-000.39,0000.28,0000.25,0000.89,0000.84,0000.49,17.3,23.8,02.2,01.5,0666.2,30.9
2021-06-12T05:13:00Z,00000200,00000000,0002.34,0001.67,0001.24,0000.17,0000.30,0000.33,0000.11,0000.21,0000.23,17.3,23.8,02.2,01.5,0666.3,30.9
2021-06-12T05:14:00Z,00000200,00000000,0002.10,0001.67,0000.88,-000.16,0000.38,0000.22,0000.88,0000.33,0000.71,17.3,23.8,02.2,01.5,0666.3,30.9
2021-06-12T05:15:00Z,00000200,00000000,0002.36,0001.61,0000.91,0000.42,0000.36,0000.22,0000.71,0000.73,0000.57,17.3,23.8,02.1,01.4,0666.3,31.0
2021-06-12T05:16:00Z,00000200,00000000,0001.58,0001.97,0001.10,-000.05,0000.66,0000.18,0000.38,0000.63,0000.26,17.3,23.8,02.2,01.5,0666.3,31.0
2021-06-12T05:17:00Z,00000200,00000000,0002.68,0001.29,0001.27,0000.50,0000.22,0000.27,0001.08,0001.10,0000.91,17.3,23.8,02.1,01.4,0666.3,30.9
2021-06-12T05:18:00Z,00000200,00000000,0002.97,0001.68,0001.34,0000.34,0000.25,0000.53,0000.30,0000.46,-000.08,17.3,23.8,02.1,01.4,0666.3,30.9
2021-06-12T05:19:00Z,00000200,01000000,0003.15,0001.59,0001.33,-000.01,0000.30,0000.22,0000.48,-000.06,0000.27,17.3,23.8,02.1,01.4,0666.3,30.9
2021-06-12T05:20:00Z,00000200,00000000,0002.42,0001.67,0001.07,0000.23,0000.50,0000.13,-000.07,0000.34,0000.44,17.3,23.8,02.0,01.4,0666.3,30.9
2021-06-12T05:21:00Z,00000200,00000000,0002.99,0001.92,0001.21,0000.17,0000.26,0000.26,0000.35,0000.20,0000.12,17.3,23.7,02.2,01.5,0666.3,30.9
2021-06-12T05:22:00Z,00000200,00000000,0002.91,0002.31,0001.44,-000.35,0000.16,0000.36,0002.53,0001.98,0001.80,17.2,23.7,02.1,01.4,0666.3,30.9
2021-06-12T05:23:00Z,00000200,01000000,0002.50,0001.98,0001.31,0000.23,0000.44,0000.53,0002.75,0002.92,0001.83,17.3,23.7,02.1,01.4,0666.3,30.9
2021-06-12T05:24:00Z,00000200,00000000,0003.12,0002.02,0001.15,0000.15,0000.41,0000.36,0000.18,0000.28,-000.09,17.2,23.7,02.1,01.4,0666.3,30.9
2021-06-12T05:25:00Z,00000200,00000000,0003.00,0002.04,0001.27,-000.12,0000.22,0000.16,0002.43,0001.83,0002.02,17.2,23.7,02.1,01.4,0666.3,30.9
2021-06-12T05:26:00Z,00000200,00000000,0003.40,0002.28,0001.03,0000.64,0000.46,0000.30,0004.41,0003.86,0002.81,17.2,23.7,02.1,01.4,0666.3,30.9
2021-06-12T05:27:00Z,00000200,00000000,0003.20,0002.18,0001.09,0000.54,0000.29,0000.21,0000.53,0000.55,0000.91,17.2,23.7,02.1,01.4,0666.3,31.0
2021-06-12T05:28:00Z,00000200,00000000,0003.01,0002.23,0001.45,-000.11,0000.26,0000.39,0000.37,0000.20,-000.13,17.2,23.7,02.0,01.3,0666.4,30.9
2021-06-12T05:29:00Z,00000200,00000000,0004.27,0001.89,0001.55,0000.39,0000.39,0000.65,-000.12,0000.80,0000.36,17.2,23.7,02.0,01.4,0666.3,30.9
2021-06-12T05:30:00Z,00000200,00000000,0004.03,0002.39,0001.48,0000.33,0000.43,0000.42,0000.10,-000.32,0000.36,17.2,23.7,02.1,01.4,0666.3,30.9
2021-06-12T05:31:00Z,00000200,00000000,0003.77,0002.50,0001.53,0000.04,0000.45,0000.34,0000.77,0000.53,0000.36,17.2,23.7,02.0,01.4,0666.4,30.9
2021-06-12T05:32:00Z,00000200,00000000,0002.78,0002.28,0001.15,0000.28,0000.26,0000.33,0000.39,0000.31,0000.17,17.2,23.7,02.0,01.3,0666.3,30.9
2021-06-12T05:33:00Z,00000200,00000000,0003.47,0002.58,0001.12,0000.70,0000.30,0000.09,0000.20,0000.11,0000.32,17.2,23.7,01.9,01.3,0666.4,30.9
2021-06-12T05:34:00Z,00000200,00000000,0004.49,0002.31,0001.14,0000.37,0000.35,0000.45,0000.33,0000.42,0000.19,17.2,23.7,01.9,01.3,0666.4,30.9
2021-06-12T05:35:00Z,00000200,00000000,0004.05,0002.29,0001.34,0000.55,0000.45,0000.21,0000.45,0000.30,0000.02,17.2,23.7,01.9,01.3,0666.4,30.9
2021-06-12T05:36:00Z,00000200,00000000,0004.04,0002.53,0001.42,0000.38,0000.41,0000.54,0000.55,0000.52,0000.61,17.2,23.7,02.0,01.3,0666.5,30.9
2021-06-12T05:37:00Z,00000200,00000000,0004.42,0002.67,0001.45,0000.03,0000.47,0000.35,0000.03,0000.40,0000.49,17.3,23.7,02.1,01.4,0666.5,30.9
2021-06-12T05:38:00Z,00000200,01000000,0002.91,0002.31,0001.54,0000.49,0000.46,0000.25,0000.64,0000.52,0000.20,17.4,23.8,02.0,01.3,0666.5,31.0
2021-06-12T05:39:00Z,00000200,01000000,0003.40,0002.70,0001.53,0000.55,0000.69,0000.37,0000.16,0000.10,0000.49,17.6,23.9,01.9,01.3,0666.6,31.0
2021-06-12T05:40:00Z,00000200,00000000,0003.60,0002.59,0001.02,0000.85,0000.46,0000.31,0000.90,0000.98,-000.03,17.6,23.9,02.0,01.3,0666.6,31.0
2021-06-12T05:41:00Z,00000200,01000000,0004.52,0002.91,0001.26,0000.62,0000.10,0000.32,0000.84,0000.75,0000.97,17.7,24.0,02.0,01.3,0666.6,31.0
2021-06-12T05:42:00Z,00000200,01000000,0004.63,0002.49,0001.41,0000.02,0000.57,0000.33,-000.07,0000.22,0000.24,17.7,24.0,01.8,01.3,0666.6,31.0
2021-06-12T05:43:00Z,00000200,00000000,0003.95,0002.46,0001.62,0000.53,0000.34,0000.41,0000.67,-000.01,0000.04,17.7,24.0,01.8,01.2,0666.5,31.0
2021-06-12T05:44:00Z,00000200,01000000,0004.16,0002.54,0001.34,0000.27,0000.57,0000.23,0000.24,0000.53,0000.60,17.7,24.0,01.7,01.2,0666.6,31.0
2021-06-12T05:45:00Z,00000200,01000000,0004.37,0002.59,0001.68,0000.75,0000.47,0000.49,0000.32,0000.31,0000.38,17.7,24.0,01.7,01.2,0666.6,31.0
2021-06-12T05:46:00Z,00000200,01000000,0004.28,0002.68,0001.75,0000.39,0000.44,0000.36,0000.18,0000.04,-000.07,17.6,24.0,01.9,01.3,0666.6,31.0
2021-06-12T05:47:00Z,00000200,00000000,0004.02,0002.88,0001.06,0000.44,0000.53,0000.22,0000.67,0000.72,0000.41,17.6,23.9,01.8,01.2,0666.6,31.0
2021-06-12T05:48:00Z,00000200,01000000,0004.91,0002.46,0001.85,0000.70,0000.23,0000.67,-000.02,-000.16,-000.04,17.6,23.9,01.8,01.2,0666.6,31.0
2021-06-12T05:49:00Z,00000200,01000000,0004.71,0003.20,0001.79,0000.27,0000.56,0000.60,0000.64,0000.67,0000.62,17.6,23.9,01.8,01.2,0666.6,31.0
2021-06-12T05:50:00Z,00000200,01000000,0004.26,0003.06,0001.62,0000.28,0000.66,0000.38,0000.45,-000.10,0000.26,17.6,23.9,01.8,01.2,0666.6,31.0
2021-06-12T05:51:00Z,00000200,01000000,0005.03,0002.90,0001.74,0000.69,0000.49,0000.51,0000.15,0000.66,0000.28,17.6,23.9,01.7,01.2,0666.6,31.0
2021-06-12T05:52:00Z,00000200,01000000,0004.49,0003.45,0001.79,0000.41,0000.28,0000.46,0000.32,0000.03,0000.05,17.6,23.9,01.8,01.2,0666.6,31.0
2021-06-12T05:53:00Z,00000200,01000000,0004.76,0003.47,0002.03,0000.97,0000.40,0000.54,0000.01,0000.54,0000.58,17.5,23.9,01.8,01.2,0666.6,31.0
2021-06-12T05:54:00Z,00000200,01000000,0005.12,0003.51,0001.98,0000.17,0000.52,0000.17,0000.41,0000.21,-000.04,17.5,23.9,01.7,01.2,0666.6,30.9
2021-06-12T05:55:00Z,00000200,01000000,0004.92,0002.97,0001.95,-000.14,0000.26,0000.52,0000.47,0000.27,0000.56,17.5,23.9,01.7,01.2,0666.6,30.9
2021-06-12T05:56:00Z,00000200,01000000,0005.14,0002.95,0001.81,0000.51,0000.39,0000.42,0000.34,0000.64,0000.32,17.5,23.9,01.8,01.2,0666.6,30.9
2021-06-12T05:57:00Z,00000200,40000000,,,,,,,0000.30,0000.13,0000.05,17.5,23.9,01.6,01.1,0666.6,31.0
2021-06-12T05:58:00Z,00000200,60000000,,,,,,,-000.18,-000.15,0000.13,17.2,24.1,01.7,01.1,0665.6,31.0
2021-06-12T05:59:00Z,00000200,20000000,,,,,,,-000.01,-000.29,-000.40,17.2,24.2,01.7,01.1,0665.6,31.0
